• In Lithuania
  • List of Countries
  • For 7 days
  • Water Temperature
  • Satellite Maps
  • Weather Map
  • Weather Widgets
  • user-avatar
    Login

    Hourly Weather Star'

    Today, 15 November, Thursday

    Time Temperature Precipitation Wind Pressure Humidity
    00:00 -2°C° 0 mm 4 mps 752 mmHg 77%
    01:00 -1°C° 0 mm 3 mps 753 mmHg 76%
    02:00 -1°C° 0 mm 3 mps 753 mmHg 76%
    03:00 -2°C° 0 mm 3 mps 753 mmHg 76%
    04:00 -2°C° 0 mm 3 mps 754 mmHg 76%
    05:00 -2°C° 0 mm 3 mps 754 mmHg 76%
    06:00 -2°C° 0 mm 3 mps 754 mmHg 76%
    07:00 -2°C° 0 mm 3 mps 755 mmHg 76%
    08:00 -2°C° 0 mm 3 mps 755 mmHg 76%
    09:00 -1°C° 0 mm 3 mps 756 mmHg 74%
    10:00 -1°C° 0 mm 2 mps 756 mmHg 72%
    11:00 +1°C° 0 mm 2 mps 757 mmHg 70%
    12:00 +1°C° 0 mm 2 mps 757 mmHg 69%
    13:00 +1°C° 0 mm 2 mps 757 mmHg 69%
    14:00 +1°C° 0 mm 2 mps 758 mmHg 68%
    15:00 -1°C° 0 mm 2 mps 758 mmHg 72%
    16:00 -2°C° 0 mm 2 mps 758 mmHg 75%
    17:00 -2°C° 0 mm 2 mps 759 mmHg 78%
    18:00 -3°C° 0 mm 2 mps 759 mmHg 77%
    19:00 -1°C° 0 mm 1 mps 760 mmHg 75%
    20:00 -1°C° 0 mm 1 mps 760 mmHg 73%
    21:00 -1°C° 0 mm 1 mps 761 mmHg 71%
    22:00 -1°C° 0 mm 1 mps 761 mmHg 69%
    23:00 -1°C° 0 mm 1 mps 761 mmHg 66%

    Tomorrow, 16 November, Friday

    Time Temperature Precipitation Wind Pressure Humidity
    00:00 -1°C° 0 mm 1 mps 762 mmHg 65%
    01:00 -1°C° 0 mm 1 mps 762 mmHg 63%
    02:00 -2°C° 0 mm 1 mps 762 mmHg 61%
    03:00 -2°C° 0 mm 1 mps 762 mmHg 60%
    04:00 -2°C° 0 mm 1 mps 762 mmHg 59%
    05:00 -2°C° 0 mm 1 mps 762 mmHg 58%
    06:00 -2°C° 0 mm 1 mps 763 mmHg 57%
    07:00 -4°C° 0 mm 2 mps 763 mmHg 56%
    08:00 -4°C° 0 mm 2 mps 764 mmHg 55%
    09:00 -3°C° 0 mm 2 mps 764 mmHg 49%
    10:00 -2°C° 0 mm 2 mps 764 mmHg 44%
    11:00 -1°C° 0 mm 2 mps 764 mmHg 39%
    12:00 +1°C° 0 mm 2 mps 764 mmHg 39%
    13:00 +1°C° 0 mm 2 mps 764 mmHg 38%
    14:00 +2°C° 0 mm 1 mps 764 mmHg 38%
    15:00 -1°C° 0 mm 2 mps 764 mmHg 40%
    16:00 -2°C° 0 mm 2 mps 764 mmHg 42%
    17:00 -3°C° 0 mm 2 mps 764 mmHg 45%
    18:00 -3°C° 0 mm 2 mps 764 mmHg 44%
    19:00 -4°C° 0 mm 2 mps 764 mmHg 43%
    20:00 -4°C° 0 mm 2 mps 764 mmHg 41%
    21:00 -2°C° 0 mm 1 mps 764 mmHg 39%
    22:00 -2°C° 0 mm 1 mps 764 mmHg 38%
    23:00 -2°C° 0 mm 1 mps 764 mmHg 36%

    Day after tomorrow, 17 November, Saturday

    Time Temperature Precipitation Wind Pressure Humidity
    00:00 -2°C° 0 mm 1 mps 764 mmHg 34%
    01:00 -2°C° 0 mm 1 mps 764 mmHg 33%
    02:00 -2°C° 0 mm 1 mps 764 mmHg 32%
    03:00 -2°C° 0 mm 1 mps 763 mmHg 31%
    04:00 -2°C° 0 mm 1 mps 763 mmHg 30%
    05:00 -4°C° 0 mm 0 mps 763 mmHg 30%
    06:00 -4°C° 0 mm 0 mps 763 mmHg 30%
    07:00 -4°C° 0 mm 0 mps 762 mmHg 29%
    08:00 -3°C° 0 mm 0 mps 762 mmHg 29%
    09:00 -2°C° 0 mm 0 mps 762 mmHg 27%
    10:00 0°C° 0 mm 1 mps 761 mmHg 25%
    11:00 +1°C° 0 mm 1 mps 761 mmHg 23%
    12:00 +1°C° 0 mm 1 mps 760 mmHg 25%
    13:00 +1°C° 0 mm 1 mps 759 mmHg 27%
    14:00 +1°C° 0 mm 1 mps 759 mmHg 28%
    15:00 +1°C° 0 mm 1 mps 758 mmHg 32%
    16:00 0°C° 0 mm 1 mps 757 mmHg 35%
    17:00 -3°C° 0 mm 2 mps 757 mmHg 38%
    18:00 -2°C° 0 mm 2 mps 756 mmHg 41%
    19:00 -2°C° 0 mm 2 mps 755 mmHg 44%
    20:00 -2°C° 0 mm 2 mps 755 mmHg 48%
    21:00 -2°C° 0.1 mm 2 mps 754 mmHg 56%
    22:00 -2°C° 0.1 mm 3 mps 753 mmHg 64%
    23:00 -2°C° 0.1 mm 3 mps 752 mmHg 72%

    18 November, Sunday

    Time Temperature Precipitation Wind Pressure Humidity
    00:00 -2°C° 0.3 mm 3 mps 752 mmHg 78%
    01:00 -2°C° 0.3 mm 3 mps 751 mmHg 83%
    02:00 -2°C° 0.3 mm 3 mps 750 mmHg 89%
    03:00 -2°C° 0.1 mm 3 mps 749 mmHg 90%
    04:00 -2°C° 0.1 mm 3 mps 748 mmHg 91%
    05:00 -2°C° 0.1 mm 2 mps 748 mmHg 92%
    06:00 -2°C° 0.1 mm 2 mps 747 mmHg 93%
    07:00 -2°C° 0.1 mm 2 mps 747 mmHg 93%
    08:00 0°C° 0.1 mm 1 mps 746 mmHg 94%
    09:00 +1°C° 0.1 mm 1 mps 746 mmHg 93%
    10:00 +1°C° 0.1 mm 1 mps 746 mmHg 91%
    11:00 +2°C° 0.1 mm 1 mps 746 mmHg 90%
    12:00 +2°C° 0.1 mm 1 mps 745 mmHg 89%
    13:00 +2°C° 0.1 mm 1 mps 745 mmHg 89%
    14:00 +2°C° 0.1 mm 1 mps 745 mmHg 88%
    15:00 +2°C° 0 mm 1 mps 745 mmHg 90%
    16:00 +1°C° 0 mm 1 mps 745 mmHg 92%
    17:00 +1°C° 0 mm 1 mps 745 mmHg 93%
    18:00 +1°C° 0.1 mm 1 mps 745 mmHg 94%
    19:00 0°C° 0.1 mm 1 mps 745 mmHg 94%
    20:00 -2°C° 0.1 mm 2 mps 745 mmHg 94%
    21:00 -2°C° 0.1 mm 2 mps 746 mmHg 94%
    22:00 -2°C° 0.1 mm 2 mps 746 mmHg 95%
    23:00 -2°C° 0.1 mm 2 mps 746 mmHg 95%

    19 November, Monday

    Time Temperature Precipitation Wind Pressure Humidity
    00:00 -2°C° 0.1 mm 2 mps 747 mmHg 94%
    01:00 -2°C° 0.1 mm 2 mps 747 mmHg 93%
    02:00 -2°C° 0.1 mm 2 mps 748 mmHg 92%
    03:00 -2°C° 0 mm 2 mps 748 mmHg 90%
    04:00 -2°C° 0 mm 3 mps 748 mmHg 89%
    05:00 -2°C° 0 mm 3 mps 749 mmHg 88%
    06:00 -2°C° 0 mm 3 mps 749 mmHg 85%
    07:00 -4°C° 0 mm 3 mps 750 mmHg 83%
    08:00 -4°C° 0 mm 3 mps 750 mmHg 81%
    09:00 -2°C° 0 mm 3 mps 751 mmHg 76%
    10:00 -2°C° 0 mm 3 mps 751 mmHg 70%
    11:00 -1°C° 0 mm 3 mps 752 mmHg 65%
    12:00 -1°C° 0 mm 3 mps 752 mmHg 63%
    13:00 -1°C° 0 mm 3 mps 752 mmHg 60%
    14:00 -1°C° 0 mm 3 mps 752 mmHg 58%
    15:00 -2°C° 0 mm 3 mps 753 mmHg 60%
    16:00 -4°C° 0 mm 3 mps 753 mmHg 63%
    17:00 -5°C° 0 mm 3 mps 753 mmHg 66%
    18:00 -5°C° 0 mm 3 mps 753 mmHg 68%
    19:00 -5°C° 0 mm 3 mps 754 mmHg 70%
    20:00 -5°C° 0 mm 3 mps 754 mmHg 72%
    21:00 -5°C° 0 mm 3 mps 754 mmHg 74%
    22:00 -5°C° 0 mm 3 mps 754 mmHg 76%
    23:00 -5°C° 0 mm 3 mps 755 mmHg 77%

    20 November, Tuesday

    Time Temperature Precipitation Wind Pressure Humidity
    00:00 -5°C° 0 mm 3 mps 755 mmHg 79%
    01:00 -6°C° 0 mm 3 mps 755 mmHg 81%
    02:00 -6°C° 0 mm 3 mps 755 mmHg 83%
    03:00 -6°C° 0 mm 3 mps 755 mmHg 85%
    04:00 -6°C° 0 mm 3 mps 755 mmHg 87%
    05:00 -6°C° 0 mm 3 mps 755 mmHg 89%
    06:00 -6°C° 0 mm 3 mps 755 mmHg 90%
    07:00 -6°C° 0 mm 3 mps 755 mmHg 91%
    08:00 -6°C° 0 mm 3 mps 755 mmHg 93%
    09:00 -5°C° 0 mm 3 mps 755 mmHg 90%
    10:00 -4°C° 0 mm 3 mps 755 mmHg 87%
    11:00 -4°C° 0 mm 3 mps 754 mmHg 84%
    12:00 -2°C° 0 mm 3 mps 754 mmHg 83%
    13:00 -2°C° 0 mm 3 mps 754 mmHg 82%
    14:00 -2°C° 0 mm 3 mps 754 mmHg 81%
    15:00 -2°C° 0 mm 3 mps 753 mmHg 83%
    16:00 -2°C° 0 mm 3 mps 753 mmHg 85%
    17:00 -2°C° 0 mm 3 mps 753 mmHg 86%
    18:00 -2°C° 0 mm 3 mps 753 mmHg 88%
    19:00 -2°C° 0 mm 3 mps 753 mmHg 89%
    20:00 -2°C° 0 mm 3 mps 753 mmHg 91%
    21:00 -2°C° 0 mm 3 mps 752 mmHg 91%
    22:00 -2°C° 0 mm 3 mps 752 mmHg 92%
    23:00 -2°C° 0 mm 3 mps 752 mmHg 92%
    Show more